METOP-B

Last updated on Sun Oct 06 2024 00:02:17 GMT+0000 (Coordinated Universal Time)

1 38771U 12049A 24279.54325813 .00000942 00000+0 44967-3 0 9994 2 38771 98.6156 334.2247 0001429 104.3724 255.7613 14.21531757625238
UTC large
Height (km)
Speed (km/s)
/
Latitude / Longitude
Inclination (degrees)
Orbital Period (minutes)
Azimuth
Elevation
Range (km)
Doppler Factor

Next 0 passes for location: London (51.5072 / 0.1276)

Sorry there are no passes over London.